Hat Yai, Thailand

10:58 AM +07 on April 29, 2017 (GMT +0700)
Hat Yai International

Weather History for VTSS - January, 2014

Change the Weather History Date:

Thursday, January 16, 2014

  Actual Average Record
Temperature  
Mean Temperature 78 °F -  
Max Temperature 85 °F 86 °F 91 °F (1998)
Min Temperature 72 °F 72 °F 68 °F (2009)
Cooling Degree Days 14    
Growing Degree Days 28 (Base 50)    
Moisture  
Dew Point 69 °F    
Average Humidity 74    
Maximum Humidity 94    
Minimum Humidity 50    
Precipitation  
Precipitation 0.00 in - - ()
Sea Level Pressure  
Sea Level Pressure 29.94 in    
Wind  
Wind Speed 5 mph ()    
Max Wind Speed 18 mph    
Max Gust Speed -    
Visibility 6.0 miles    
Events      
Averages and records for this station are not official NWS values.
T = Trace of Precipitation, MM = Missing Value Source: Averaged Metar Reports

Daily Weather History Graph

Daily Weather History Graph

Search for Another Location

Airport or City:

Trip Planner

Search our weather history database for the weather conditions in past years. The results will help you decide how hot, cold, wet, or windy it might be!

Date:

Astronomy

Jan. 16, 2014 Rise Set
Actual Time 6:34 AM +07 6:20 PM +07
Civil Twilight 6:12 AM +07 6:43 PM +07
Nautical Twilight 5:46 AM +07 7:09 PM +07
Astronomical Twilight 5:21 AM +07 7:34 PM +07
Moon 6:28 PM +07 (1/16) 6:21 AM +07 (1/16)
Length of Visible Light 12h 30m
Length of Day
11h 46m
Full, 100% of the Moon is Illuminated
Jan 16
Full
Jan 24
Last Quarter
Jan 31
New
Feb 7
First Quarter
Feb 15
Full

Hourly Weather History & Observations

Time (+07) Temp. Heat Index Dew Point Humidity Pressure Visibility Wind Dir Wind Speed Gust Speed Precip Events Conditions
12:00 AM 75.2 °F - 69.8 °F 83% 29.98 in 6.2 mi Calm Calm - N/A   Mostly Cloudy
12:30 AM 73.4 °F - 69.8 °F 88% 29.98 in 6.2 mi WSW 2.3 mph - N/A   Mostly Cloudy
1:00 AM 75 °F - 70 °F 79% 29.97 in 6 mi Calm Calm - -   Scattered Clouds
1:00 AM 75.2 °F - 69.8 °F 83% 29.95 in 6.2 mi Calm Calm - N/A   Mostly Cloudy
1:30 AM 75.2 °F - 69.8 °F 83% 29.95 in 6.2 mi East 4.6 mph - N/A   Mostly Cloudy
2:00 AM 75.2 °F - 69.8 °F 83% 29.95 in 6.2 mi ESE 4.6 mph - N/A   Mostly Cloudy
2:30 AM 73.4 °F - 69.8 °F 88% 29.92 in 6.2 mi East 5.8 mph - N/A   Mostly Cloudy
3:00 AM 75.2 °F - 69.8 °F 83% 29.92 in 6.2 mi East 5.8 mph - N/A   Mostly Cloudy
3:30 AM 75.2 °F - 69.8 °F 83% 29.92 in 6.2 mi Calm Calm - N/A   Mostly Cloudy
4:00 AM 74 °F - 69 °F 81% 29.94 in 6 mi Calm Calm - -   Scattered Clouds
4:00 AM 73.4 °F - 69.8 °F 88% 29.92 in 6.2 mi Calm Calm - N/A   Mostly Cloudy
4:30 AM 73.4 °F - 69.8 °F 88% 29.92 in 6.2 mi Calm Calm - N/A   Scattered Clouds
5:00 AM 73.4 °F - 69.8 °F 88% 29.92 in 5.0 mi Calm Calm - N/A   Scattered Clouds
5:30 AM 71.6 °F - 69.8 °F 94% 29.92 in 5.0 mi WSW 2.3 mph - N/A   Scattered Clouds
6:00 AM 71.6 °F - 69.8 °F 94% 29.92 in 5.0 mi WSW 3.5 mph - N/A   Mostly Cloudy
6:30 AM 71.6 °F - 69.8 °F 94% 29.95 in 5.0 mi West 4.6 mph - N/A   Mostly Cloudy
7:00 AM 73 °F - 70 °F 86% 29.97 in 4 mi Calm Calm - -   Mist
7:00 AM 73.4 °F - 69.8 °F 88% 29.95 in 4.3 mi Calm Calm - N/A   Mostly Cloudy
7:30 AM 75.2 °F - 69.8 °F 83% 29.98 in 4.3 mi WNW 3.5 mph - N/A   Scattered Clouds
8:00 AM 77.0 °F - 69.8 °F 78% 29.98 in 5.6 mi ENE 4.6 mph - N/A   Scattered Clouds
8:30 AM 77.0 °F - 69.8 °F 78% 29.98 in 6.2 mi East 4.6 mph - N/A   Scattered Clouds
9:00 AM 78.8 °F - 69.8 °F 74% 30.01 in 6.2 mi East 8.1 mph - N/A   Mostly Cloudy
9:30 AM 80.6 °F 83.2 °F 68.0 °F 65% 29.98 in 6.2 mi East 11.5 mph - N/A   Mostly Cloudy
10:00 AM 82 °F - 69 °F 56% 30.00 in 6 mi East 9.2 mph - -   Scattered Clouds
10:00 AM 82.4 °F 86.3 °F 69.8 °F 66% 29.98 in 6.2 mi East 13.8 mph - N/A   Mostly Cloudy
10:30 AM 82.4 °F 86.3 °F 69.8 °F 66% 29.98 in 6.2 mi East 9.2 mph - N/A   Mostly Cloudy
11:00 AM 80.6 °F 83.2 °F 68.0 °F 65% 29.98 in 6.2 mi ENE 15.0 mph - N/A   Mostly Cloudy
11:30 AM 80.6 °F 83.9 °F 69.8 °F 70% 29.98 in 6.2 mi East 15.0 mph - N/A   Mostly Cloudy
12:00 PM 80.6 °F 83.2 °F 68.0 °F 65% 29.65 in 6.2 mi East 18.4 mph - N/A   Mostly Cloudy
12:30 PM 84.2 °F 87.3 °F 68.0 °F 58% 29.95 in 6.2 mi ENE 13.8 mph - N/A   Mostly Cloudy
1:00 PM 84 °F - 68 °F 50% 29.94 in 6 mi ENE 16.1 mph - -   Scattered Clouds
1:00 PM 84.2 °F 87.3 °F 68.0 °F 58% 29.92 in 6.2 mi ENE 16.1 mph - N/A   Mostly Cloudy
1:30 PM 86.0 °F 88.2 °F 66.2 °F 51% 29.92 in 6.2 mi East 18.4 mph - N/A   Mostly Cloudy
2:00 PM 84.2 °F 87.3 °F 68.0 °F 58% 29.89 in 6.2 mi ENE 16.1 mph - N/A   Mostly Cloudy
2:30 PM 82.4 °F 85.4 °F 68.0 °F 62% 29.89 in 6.2 mi ENE 15.0 mph - N/A   Mostly Cloudy
3:00 PM 84.2 °F 87.3 °F 68.0 °F 58% 29.89 in 6.2 mi ENE 16.1 mph - N/A   Mostly Cloudy
3:30 PM 82.4 °F 85.4 °F 68.0 °F 62% 29.89 in 6.2 mi East 10.4 mph - N/A   Mostly Cloudy
4:00 PM 83 °F - 68 °F 52% 29.88 in 6 mi East 12.7 mph - -   Scattered Clouds
4:00 PM 82.4 °F 85.4 °F 68.0 °F 62% 29.89 in 6.2 mi East 12.7 mph - N/A   Mostly Cloudy
4:30 PM 82.4 °F 86.3 °F 69.8 °F 66% 29.89 in 6.2 mi ENE 12.7 mph - N/A   Mostly Cloudy
5:00 PM 80.6 °F 83.2 °F 68.0 °F 65% 29.89 in 6.2 mi ENE 15.0 mph - N/A   Mostly Cloudy
5:30 PM 80.6 °F 83.9 °F 69.8 °F 70% 29.89 in 6.2 mi East 15.0 mph - N/A   Mostly Cloudy
6:00 PM 78.8 °F - 68.0 °F 69% 29.89 in 6.2 mi ENE 10.4 mph - N/A   Mostly Cloudy
6:30 PM 77.0 °F - 68.0 °F 74% 29.92 in 6.2 mi ENE 8.1 mph - N/A   Mostly Cloudy
7:00 PM 77 °F - 68 °F 68% 29.93 in 6 mi East 6.9 mph - -   Scattered Clouds
7:00 PM 77.0 °F - 68.0 °F 74% 29.92 in 6.2 mi East 6.9 mph - N/A   Mostly Cloudy
7:30 PM 77.0 °F - 68.0 °F 74% 29.95 in 6.2 mi ENE 5.8 mph - N/A   Mostly Cloudy
8:00 PM 75.2 °F - 68.0 °F 78% 29.95 in 6.2 mi NE 3.5 mph - N/A   Mostly Cloudy
8:30 PM 75.2 °F - 68.0 °F 78% 29.95 in 6.2 mi ENE 4.6 mph - N/A   Mostly Cloudy
9:00 PM 75.2 °F - 68.0 °F 78% 29.98 in 6.2 mi ESE 4.6 mph - N/A   Mostly Cloudy
9:30 PM 75.2 °F - 68.0 °F 78% 29.98 in 6.2 mi East 5.8 mph - N/A   Mostly Cloudy
10:00 PM 74 °F - 67 °F 74% 29.99 in 6 mi ESE 2.3 mph - -   Scattered Clouds
10:00 PM 75.2 °F - 68.0 °F 78% 29.98 in 6.2 mi ESE 2.3 mph - N/A   Mostly Cloudy
10:30 PM 73.4 °F - 68.0 °F 83% 29.98 in 6.2 mi East 3.5 mph - N/A   Scattered Clouds
11:00 PM 75.2 °F - 68.0 °F 78% 29.98 in 6.2 mi East 3.5 mph - N/A   Scattered Clouds
11:30 PM 73.4 °F - 68.0 °F 83% 29.98 in 6.2 mi East 3.5 mph - N/A   Scattered Clouds